sat.trackr.live / text

‹ back to catalog

STARLINK-31390

NORAD 58937 · 2024-027G

PAYLOAD ACTIVE UNKNOWN

§ Identity

Operator
Country
US
Launch date
2024-02-10
Launch site
AFWTR
Launch vehicle
Mass (kg)
RCS (m²)

Purposes: comms

External: N2YO · Heavens-Above · Gunter

§ Orbital elements

Epoch: 2026-09-20T22:01:40.848960Z

Period
93.85 min
Inclination
53.1581°
Eccentricity
0.0001198
Mean motion
15.34393634 rev/d
Perigee alt
461.9 km
Apogee alt
463.5 km
Semi-major
6,840.9 km
B*
6.3263e-5
RAAN
121.7444°
Arg perigee
78.4365°
Mean anomaly
281.6772°
Rev number
14,723

§ Raw data

STARLINK-313901 58937U 24027G   26263.91783390  .00001761  00000+0  63263-4 0  99942 58937  53.1581 121.7444 0001198  78.4365 281.6772 15.34393634147233

JSON: /api/v1/satellites/58937 · /tle

For live sub-satellite position, see the globe view (requires WebGL).

§ Visibility from observer

Set your observer location to see the next 7 days of passes ≥ 10°. The values pass through the URL so the page stays shareable.

No JS? Fill the form by hand. The geolocation button needs JavaScript.